Location: Felsheim
(48.7267°N, 10.7386°E)
Time: 05:31:28
(UTC+00:00)

Terra - Pass Details

Date: 09 April 2020
Orbit: 701 x 703 km, 98.2° (Epoch: 29 May)

Event Time Altitude Azimuth Distance (km) Brightness Sun altitude
Exits shadow 20:29:27 40° 76° (ENE) 1,035 2.4 -22.3°
Maximum altitude 20:29:42 41° 67° (ENE) 1,029 2.4 -22.3°
Drops below altitude 10° 20:34:10 10° 359° (N) 2,184 5.0 -22.8°
Sets 20:36:31 0° 352° (N) 3,107 6.0 -23.1°
